Weather History for HESN - June, 2013

Change the Weather History Date:

Friday, June 21, 2013

  Actual Average Record
Temperature  
Mean Temperature 95 °F -  
Max Temperature 107 °F 104 °F 113 °F (2005)
Min Temperature 83 °F 80 °F 75 °F (2000)
Cooling Degree Days 30    
Growing Degree Days 45 (Base 50)    
Moisture  
Dew Point 34 °F    
Average Humidity 11    
Maximum Humidity 19    
Minimum Humidity 4    
Precipitation  
Precipitation 0.00 in 0.00 in - ()
Sea Level Pressure  
Sea Level Pressure 29.74 in    
Wind  
Wind Speed 7 mph ()    
Max Wind Speed 16 mph    
Max Gust Speed -    
Visibility 6.0 miles    
Events      
Averages and records for this station are not official NWS values.
T = Trace of Precipitation, MM = Missing Value Source: Averaged Metar Reports

Daily Weather History Graph

Daily Weather History Graph

Search for Another Location

Airport or City:

Trip Planner

Search our weather history database for the weather conditions in past years. The results will help you decide how hot, cold, wet, or windy it might be!

Date:

Astronomy

Jun. 21, 2013 Rise Set
Actual Time 5:01 AM EET 6:39 PM EET
Civil Twilight 4:36 AM EET 7:04 PM EET
Nautical Twilight 4:05 AM EET 7:35 PM EET
Astronomical Twilight 3:33 AM EET 8:07 PM EET
Moon 4:34 PM EET (6/21) 2:49 AM EET (6/21)
Length of Visible Light 14h 28m
Length of Day
13h 37m
Waxing Gibbous, 94% of the Moon is Illuminated
Jun 21
Waxing Gibbous
Jun 23
Full
Jun 30
Last Quarter
Jul 8
New
Jul 16
First Quarter

Hourly Weather History & Observations

Time (EET) Temp. Dew Point Humidity Pressure Visibility Wind Dir Wind Speed Gust Speed Precip Events Conditions
12:00 AM 89.6 °F 35.6 °F 15% 29.74 in - West 5.8 mph - N/A   Clear
1:00 AM 89.6 °F 37.4 °F 16% 29.74 in - West 6.9 mph - N/A   Clear
2:00 AM 88 °F 38 °F 9% 29.71 in 6 mi North 4.6 mph - -  
2:00 AM 87.8 °F 37.4 °F 17% 29.74 in - North 4.6 mph - N/A   Clear
3:00 AM 87.8 °F 37.4 °F 17% 29.74 in - NW 4.6 mph - N/A   Clear
4:00 AM 86.0 °F 37.4 °F 18% 29.74 in - NNW 4.6 mph - N/A   Clear
5:00 AM 86.0 °F 37.4 °F 18% 29.74 in - WNW 4.6 mph - N/A   Clear
6:00 AM 84.2 °F 37.4 °F 19% 29.77 in - West 8.1 mph - N/A   Clear
7:00 AM 89.6 °F 37.4 °F 16% 29.77 in - WSW 5.8 mph - N/A   Clear
8:00 AM 94 °F 38 °F 7% 29.75 in 6 mi WNW 8.1 mph - -  
8:00 AM 95.0 °F 37.4 °F 13% 29.77 in - WNW 8.1 mph - N/A   Clear
9:00 AM 98.6 °F 39.2 °F 13% 29.80 in - NW 8.1 mph - N/A   Clear
10:00 AM 102.2 °F 39.2 °F 11% 29.80 in - NW 9.2 mph - N/A   Clear
11:00 AM 102.2 °F 35.6 °F 10% 29.77 in - West 9.2 mph - N/A   Clear
12:00 PM 104.0 °F 35.6 °F 9% 29.77 in - WNW 8.1 mph - N/A   Clear
1:00 PM 104.0 °F 32.0 °F 8% 29.74 in - WNW 9.2 mph - N/A   Clear
2:00 PM 105 °F 29 °F 4% 29.68 in 6 mi WNW 15.0 mph - -   Clear
2:00 PM 105.8 °F 28.4 °F 7% 29.74 in - NNW 15.0 mph - N/A   Clear
3:00 PM 105.8 °F 30.2 °F 7% 29.71 in - West 10.4 mph - N/A   Clear
4:00 PM 105.8 °F 32.0 °F 8% 29.71 in - WNW 13.8 mph - N/A   Clear
5:00 PM 104.0 °F 32.0 °F 8% 29.71 in - West 16.1 mph - N/A   Clear
6:00 PM 104.0 °F 33.8 °F 9% 29.71 in - West 12.7 mph - N/A   Clear
7:00 PM 100.4 °F 32.0 °F 9% 29.71 in - WNW 15.0 mph - N/A   Clear
8:00 PM 98 °F 30 °F 4% 29.65 in 6 mi WNW 13.8 mph - -  
8:00 PM 98.6 °F 30.2 °F 9% 29.71 in - WNW 13.8 mph - N/A   Clear
9:00 PM 95.0 °F 30.2 °F 10% 29.71 in - Calm Calm - N/A   Clear
10:00 PM 107.6 °F 30.2 °F 7% 29.77 in - WNW 6.9 mph - N/A   Clear
11:00 PM 102.2 °F 30.2 °F 8% 29.74 in - WSW 3.5 mph - N/A   Clear